| time (UTC) | temp F | wind direction | speed MPH | gust MPH | rain 1hr in | rain 24hr in | rain mn in | humidity % | barometer mb |
| 20260506051228 | 37 | 306 | 2.0 | 5.0 | 0.00 | 0.00 | 0.00 | 90 | 1015.7 |
| 20260506050728 | 37 | 288 | 1.0 | 5.0 | 0.00 | 0.00 | 0.00 | 90 | 1015.6 |
| 20260506050229 | 37 | 189 | 2.0 | 8.0 | 0.00 | 0.00 | 0.00 | 90 | 1015.8 |
| 20260506044229 | 38 | 251 | 2.0 | 6.0 | 0.00 | 0.00 | 0.00 | 88 | 1015.6 |
| 20260506043229 | 38 | 251 | 3.0 | 6.0 | 0.00 | 0.00 | 0.00 | 89 | 1015.6 |
| 20260506042730 | 39 | 272 | 2.0 | 5.0 | 0.00 | 0.00 | 0.00 | 89 | 1015.6 |
| 20260506042228 | 39 | 289 | 1.0 | 4.0 | 0.00 | 0.00 | 0.00 | 89 | 1015.6 |
| 20260506041728 | 39 | 69 | 0.0 | 2.0 | 0.00 | 0.00 | 0.00 | 89 | 1015.6 |
| 20260506041227 | 40 | 69 | 0.0 | 3.0 | 0.00 | 0.00 | 0.00 | 89 | 1015.6 |
| 20260506040727 | 40 | 69 | 0.0 | 3.0 | 0.00 | 0.00 | 0.00 | 89 | 1015.5 |
| 20260506035728 | 40 | 30 | 1.0 | 5.0 | 0.00 | 0.00 | 0.00 | 89 | 1015.6 |
| 20260506035228 | 40 | 135 | 2.0 | 5.0 | 0.00 | 0.00 | 0.00 | 89 | 1015.6 |
| 20260506034730 | 40 | 31 | 0.0 | 4.0 | 0.00 | 0.00 | 0.00 | 89 | 1015.6 |
| 20260506034230 | 40 | 0 | 1.0 | 4.0 | 0.00 | 0.00 | 0.00 | 89 | 1015.7 |
| 20260506033729 | 40 | 25 | 1.0 | 5.0 | 0.00 | 0.00 | 0.00 | 88 | 1015.6 |
| 20260506032729 | 40 | 18 | 0.0 | 3.0 | 0.00 | 0.00 | 0.00 | 87 | 1015.7 |
| 20260506032229 | 40 | 18 | 0.0 | 3.0 | 0.00 | 0.00 | 0.00 | 87 | 1015.7 |
| 20260506031727 | 40 | 18 | 0.0 | 3.0 | 0.00 | 0.00 | 0.00 | 87 | 1015.8 |
| 20260506031227 | 40 | 18 | 0.0 | 3.0 | 0.00 | 0.00 | 0.00 | 87 | 1015.7 |
| 20260506030728 | 40 | 18 | 0.0 | 5.0 | 0.00 | 0.00 | 0.00 | 87 | 1015.7 |
| 20260506025729 | 40 | 14 | 2.0 | 6.0 | 0.00 | 0.00 | 0.00 | 87 | 1015.7 |
| 20260506025229 | 40 | 4 | 2.0 | 6.0 | 0.00 | 0.00 | 0.00 | 87 | 1015.7 |
| 20260506023727 | 40 | 354 | 4.0 | 8.0 | 0.00 | 0.00 | 0.00 | 86 | 1015.7 |
| 20260506023229 | 40 | 7 | 2.0 | 7.0 | 0.00 | 0.00 | 0.00 | 86 | 1015.7 |
| 20260506022236 | 40 | 0 | 2.0 | 6.0 | 0.00 | 0.00 | 0.00 | 85 | 1015.7 |
| 20260506021728 | 40 | 0 | 3.0 | 7.0 | 0.00 | 0.00 | 0.00 | 85 | 1015.8 |
| 20260506021229 | 40 | 0 | 4.0 | 8.0 | 0.00 | 0.00 | 0.00 | 85 | 1015.8 |
| 20260506020230 | 40 | 353 | 4.0 | 8.0 | 0.00 | 0.00 | 0.00 | 86 | 1015.7 |
| 20260506015730 | 40 | 337 | 4.0 | 8.0 | 0.00 | 0.00 | 0.00 | 86 | 1015.8 |
| 20260506015227 | 40 | 25 | 5.0 | 8.0 | 0.00 | 0.00 | 0.00 | 86 | 1015.8 |
| 20260506014729 | 41 | 11 | 2.0 | 11.0 | 0.00 | 0.00 | 0.00 | 86 | 1015.9 |
| 20260506013730 | 41 | 10 | 4.0 | 9.0 | 0.00 | 0.00 | 0.00 | 86 | 1015.8 |
| 20260506013228 | 41 | 10 | 4.0 | 8.0 | 0.00 | 0.00 | 0.00 | 85 | 1015.8 |
| 20260506012228 | 41 | 13 | 4.0 | 8.0 | 0.00 | 0.00 | 0.00 | 84 | 1015.8 |
| 20260506011727 | 41 | 0 | 3.0 | 8.0 | 0.00 | 0.00 | 0.00 | 83 | 1015.8 |
| 20260506011229 | 42 | 24 | 3.0 | 6.0 | 0.00 | 0.00 | 0.00 | 82 | 1015.9 |
| 20260506010728 | 42 | 35 | 3.0 | 6.0 | 0.00 | 0.00 | 0.00 | 82 | 1015.9 |
| 20260506010227 | 42 | 27 | 2.0 | 12.0 | 0.00 | 0.00 | 0.00 | 82 | 1015.8 |
| 20260506005729 | 42 | 27 | 4.0 | 12.0 | 0.00 | 0.00 | 0.00 | 82 | 1015.8 |
| 20260506005229 | 42 | 10 | 6.0 | 11.0 | 0.00 | 0.00 | 0.00 | 81 | 1015.9 |
| 20260506004227 | 42 | 0 | 6.0 | 11.0 | 0.00 | 0.00 | 0.00 | 81 | 1016.0 |
| 20260506003727 | 42 | 24 | 5.0 | 9.0 | 0.00 | 0.00 | 0.00 | 81 | 1016.0 |
| 20260506003230 | 42 | 13 | 5.0 | 9.0 | 0.00 | 0.00 | 0.00 | 82 | 1016.1 |
| 20260506002728 | 42 | 0 | 5.0 | 12.0 | 0.00 | 0.00 | 0.00 | 82 | 1016.0 |
| 20260506002229 | 42 | 358 | 7.0 | 12.0 | 0.00 | 0.00 | 0.00 | 82 | 1016.1 |
| 20260506001729 | 42 | 354 | 6.0 | 12.0 | 0.00 | 0.00 | 0.00 | 82 | 1016.1 |
| 20260506000727 | 42 | 0 | 7.0 | 11.0 | 0.00 | 0.00 | 0.00 | 83 | 1016.1 |
| 20260506000229 | 42 | 0 | 5.0 | 9.0 | 0.00 | 0.00 | 0.00 | 83 | 1016.1 |
| 20260505235727 | 42 | 16 | 3.0 | 9.0 | 0.00 | 0.00 | 0.00 | 83 | 1016.1 |
| 20260505235227 | 42 | 11 | 3.0 | 9.0 | 0.00 | 0.00 | 0.00 | 83 | 1016.1 |
| 20260505234229 | 42 | 6 | 4.0 | 8.0 | 0.00 | 0.00 | 0.00 | 83 | 1016.1 |
| 20260505233729 | 42 | 4 | 4.0 | 8.0 | 0.00 | 0.00 | 0.00 | 83 | 1016.2 |
| 20260505233228 | 42 | 16 | 2.0 | 8.0 | 0.00 | 0.00 | 0.00 | 82 | 1016.2 |
| 20260505232230 | 42 | 1 | 2.0 | 6.0 | 0.00 | 0.00 | 0.00 | 82 | 1016.2 |
| 20260505231729 | 42 | 20 | 3.0 | 8.0 | 0.00 | 0.00 | 0.00 | 82 | 1016.4 |
| 20260505231230 | 42 | 0 | 4.0 | 8.0 | 0.00 | 0.00 | 0.00 | 82 | 1016.3 |
| 20260505230730 | 42 | 8 | 4.0 | 8.0 | 0.00 | 0.00 | 0.00 | 82 | 1016.4 |
| 20260505230227 | 42 | 20 | 3.0 | 9.0 | 0.00 | 0.00 | 0.00 | 82 | 1016.4 |
| 20260505225727 | 42 | 17 | 5.0 | 9.0 | 0.00 | 0.00 | 0.00 | 82 | 1016.6 |
| 20260505224727 | 42 | 3 | 5.0 | 11.0 | 0.00 | 0.00 | 0.00 | 82 | 1016.4 |
| 20260505224229 | 42 | 13 | 4.0 | 11.0 | 0.00 | 0.00 | 0.00 | 81 | 1016.4 |
| 20260505223730 | 43 | 8 | 4.0 | 12.0 | 0.00 | 0.00 | 0.00 | 81 | 1016.3 |
| 20260505223227 | 43 | 16 | 7.0 | 12.0 | 0.00 | 0.00 | 0.00 | 82 | 1016.4 |
| 20260505222729 | 43 | 20 | 7.0 | 12.0 | 0.00 | 0.00 | 0.00 | 82 | 1016.4 |
| 20260505222228 | 43 | 17 | 4.0 | 8.0 | 0.00 | 0.00 | 0.00 | 82 | 1016.4 |
| 20260505221229 | 43 | 11 | 4.0 | 11.0 | 0.00 | 0.00 | 0.00 | 81 | 1016.4 |
| 20260505220728 | 43 | 21 | 6.0 | 11.0 | 0.00 | 0.00 | 0.00 | 81 | 1016.6 |
| 20260505220230 | 44 | 10 | 6.0 | 11.0 | 0.00 | 0.00 | 0.00 | 82 | 1016.4 |
| 20260505215728 | 44 | 3 | 4.0 | 12.0 | 0.00 | 0.00 | 0.00 | 82 | 1016.6 |
| 20260505215229 | 44 | 20 | 6.0 | 12.0 | 0.00 | 0.00 | 0.00 | 82 | 1016.6 |
| 20260505214728 | 44 | 16 | 5.0 | 12.0 | 0.00 | 0.00 | 0.00 | 82 | 1016.4 |
| 20260505214228 | 44 | 11 | 4.0 | 12.0 | 0.00 | 0.00 | 0.00 | 81 | 1016.4 |
| 20260505213228 | 44 | 16 | 7.0 | 13.0 | 0.00 | 0.00 | 0.00 | 81 | 1016.4 |
| 20260505212728 | 44 | 347 | 6.0 | 12.0 | 0.00 | 0.00 | 0.00 | 82 | 1016.6 |
| 20260505211728 | 44 | 32 | 6.0 | 16.0 | 0.00 | 0.00 | 0.00 | 82 | 1016.7 |
| 20260505211227 | 44 | 23 | 9.0 | 16.0 | 0.00 | 0.00 | 0.00 | 82 | 1016.7 |
| 20260505210728 | 44 | 13 | 7.0 | 12.0 | 0.00 | 0.00 | 0.00 | 84 | 1016.8 |
| 20260505210229 | 44 | 18 | 5.0 | 13.0 | 0.00 | 0.00 | 0.00 | 84 | 1016.7 |
| 20260505205730 | 44 | 34 | 6.0 | 13.0 | 0.00 | 0.00 | 0.00 | 84 | 1016.7 |
| 20260505205228 | 44 | 59 | 7.0 | 13.0 | 0.00 | 0.00 | 0.00 | 84 | 1016.9 |
| 20260505204729 | 44 | 47 | 8.0 | 13.0 | 0.00 | 0.00 | 0.00 | 84 | 1016.8 |
| 20260505204228 | 44 | 47 | 4.0 | 11.0 | 0.00 | 0.00 | 0.00 | 84 | 1016.8 |
| 20260505203226 | 44 | 7 | 5.0 | 13.0 | 0.00 | 0.00 | 0.00 | 84 | 1016.7 |
| 20260505202730 | 44 | 25 | 6.0 | 14.0 | 0.00 | 0.00 | 0.00 | 84 | 1016.7 |
| 20260505202229 | 44 | 28 | 7.0 | 14.0 | 0.00 | 0.00 | 0.00 | 84 | 1016.7 |
| 20260505201728 | 44 | 14 | 7.0 | 14.0 | 0.00 | 0.00 | 0.00 | 85 | 1016.7 |
| 20260505201229 | 44 | 0 | 7.0 | 12.0 | 0.00 | 0.00 | 0.00 | 85 | 1016.7 |
| 20260505200727 | 44 | 47 | 4.0 | 11.0 | 0.00 | 0.00 | 0.00 | 85 | 1016.6 |
| 20260505200231 | 44 | 0 | 6.0 | 11.0 | 0.00 | 0.00 | 0.00 | 85 | 1016.6 |
| 20260505195727 | 44 | 4 | 7.0 | 15.0 | 0.00 | 0.00 | 0.00 | 85 | 1016.7 |
| 20260505194228 | 44 | 7 | 7.0 | 16.0 | 0.00 | 0.00 | 0.00 | 85 | 1016.6 |
| 20260505193228 | 45 | 28 | 10.0 | 16.0 | 0.00 | 0.00 | 0.00 | 85 | 1016.4 |
| 20260505192727 | 45 | 17 | 9.0 | 13.0 | 0.00 | 0.00 | 0.00 | 85 | 1016.3 |
| 20260505192229 | 45 | 16 | 7.0 | 14.0 | 0.00 | 0.00 | 0.00 | 86 | 1016.3 |
| 20260505191728 | 45 | 0 | 8.0 | 14.0 | 0.00 | 0.00 | 0.00 | 86 | 1016.2 |
| 20260505191227 | 45 | 25 | 6.0 | 16.0 | 0.00 | 0.00 | 0.00 | 86 | 1016.1 |
| 20260505190227 | 45 | 56 | 7.0 | 18.0 | 0.00 | 0.00 | 0.00 | 85 | 1016.1 |
| 20260505185227 | 45 | 7 | 8.0 | 18.0 | 0.00 | 0.00 | 0.00 | 85 | 1016.2 |
| 20260505184727 | 45 | 351 | 11.0 | 21.0 | 0.00 | 0.00 | 0.00 | 84 | 1016.1 |
| 20260505182728 | 46 | 41 | 9.0 | 20.0 | 0.00 | 0.00 | 0.00 | 84 | 1016.0 |
| 20260505182226 | 46 | 30 | 8.0 | 20.0 | 0.00 | 0.00 | 0.00 | 85 | 1015.9 |
| 20260505181229 | 46 | 14 | 10.0 | 19.0 | 0.00 | 0.00 | 0.00 | 85 | 1016.0 |
| 20260505180226 | 46 | 0 | 8.0 | 16.0 | 0.00 | 0.00 | 0.00 | 85 | 1016.0 |
| 20260505175228 | 46 | 1 | 10.0 | 15.0 | 0.00 | 0.00 | 0.00 | 84 | 1016.1 |
| 20260505174727 | 46 | 358 | 9.0 | 19.0 | 0.00 | 0.00 | 0.00 | 84 | 1016.1 |
| 20260505174228 | 46 | 0 | 9.0 | 19.0 | 0.00 | 0.00 | 0.00 | 84 | 1016.1 |
| 20260505172727 | 46 | 7 | 8.0 | 18.0 | 0.00 | 0.00 | 0.00 | 84 | 1016.1 |
| 20260505171226 | 47 | 0 | 8.0 | 19.0 | 0.00 | 0.00 | 0.00 | 82 | 1016.1 |
| 20260505170726 | 47 | 27 | 10.0 | 19.0 | 0.00 | 0.00 | 0.00 | 82 | 1016.1 |
| 20260505170228 | 47 | 11 | 11.0 | 19.0 | 0.00 | 0.00 | 0.00 | 82 | 1016.1 |
| 20260505165727 | 47 | 34 | 9.0 | 17.0 | 0.00 | 0.00 | 0.00 | 82 | 1016.0 |
| 20260505165228 | 47 | 358 | 10.0 | 17.0 | 0.00 | 0.00 | 0.00 | 81 | 1016.1 |
| 20260505164728 | 47 | 25 | 11.0 | 20.0 | 0.00 | 0.00 | 0.00 | 82 | 1016.0 |
| 20260505163726 | 47 | 4 | 9.0 | 18.0 | 0.00 | 0.00 | 0.00 | 83 | 1016.1 |
| 20260505163228 | 47 | 6 | 10.0 | 19.0 | 0.00 | 0.00 | 0.00 | 83 | 1016.0 |
| 20260505162726 | 47 | 0 | 10.0 | 20.0 | 0.00 | 0.00 | 0.00 | 83 | 1016.0 |
| 20260505162227 | 47 | 14 | 11.0 | 20.0 | 0.00 | 0.00 | 0.00 | 83 | 1016.0 |
| 20260505161726 | 47 | 353 | 10.0 | 19.0 | 0.00 | 0.00 | 0.00 | 83 | 1016.0 |
| 20260505160728 | 48 | 0 | 9.0 | 21.0 | 0.00 | 0.00 | 0.00 | 82 | 1015.9 |
| 20260505160227 | 48 | 0 | 13.0 | 21.0 | 0.00 | 0.00 | 0.00 | 82 | 1015.8 |
| 20260505153226 | 48 | 0 | 10.0 | 18.0 | 0.00 | 0.00 | 0.00 | 84 | 1015.6 |
| 20260505152728 | 48 | 0 | 10.0 | 20.0 | 0.00 | 0.00 | 0.00 | 85 | 1015.6 |
| 20260505152228 | 48 | 4 | 12.0 | 25.0 | 0.00 | 0.00 | 0.00 | 84 | 1015.5 |
| 20260505151728 | 48 | 355 | 14.0 | 25.0 | 0.00 | 0.00 | 0.00 | 84 | 1015.6 |
| 20260505151227 | 49 | 10 | 12.0 | 21.0 | 0.00 | 0.00 | 0.00 | 84 | 1015.4 |
| 20260505150728 | 49 | 0 | 9.0 | 19.0 | 0.00 | 0.00 | 0.00 | 84 | 1015.5 |
| 20260505150226 | 49 | 354 | 11.0 | 19.0 | 0.00 | 0.00 | 0.00 | 84 | 1015.4 |
| 20260505140227 | 51 | 18 | 10.0 | 18.0 | 0.00 | 0.00 | 0.00 | 78 | 1015.4 |
| 20260505130229 | 50 | 8 | 7.0 | 21.0 | 0.00 | 0.00 | 0.00 | 82 | 1015.1 |
| 20260505124726 | 49 | 0 | 10.0 | 19.0 | 0.00 | 0.00 | 0.00 | 85 | 1015.1 |
| 20260505124228 | 49 | 351 | 12.0 | 19.0 | 0.00 | 0.00 | 0.00 | 86 | 1015.1 |
| 20260505123728 | 49 | 337 | 14.0 | 19.0 | 0.00 | 0.00 | 0.00 | 84 | 1015.1 |
| 20260505123228 | 49 | 1 | 11.0 | 18.0 | 0.00 | 0.00 | 0.00 | 84 | 1015.1 |
| 20260505122228 | 49 | 0 | 9.0 | 19.0 | 0.00 | 0.00 | 0.00 | 85 | 1015.0 |
| 20260505121726 | 49 | 1 | 10.0 | 18.0 | 0.00 | 0.00 | 0.00 | 86 | 1015.0 |
| 20260505121226 | 49 | 357 | 11.0 | 16.0 | 0.00 | 0.00 | 0.00 | 87 | 1015.0 |
| 20260505115228 | 48 | 0 | 9.0 | 15.0 | 0.00 | 0.00 | 0.00 | 88 | 1014.9 |
| 20260505114726 | 49 | 355 | 9.0 | 14.0 | 0.00 | 0.00 | 0.00 | 90 | 1014.8 |
| 20260505114227 | 48 | 37 | 5.0 | 13.0 | 0.00 | 0.00 | 0.00 | 89 | 1014.9 |
| 20260505113226 | 48 | 0 | 9.0 | 16.0 | 0.00 | 0.00 | 0.00 | 89 | 1014.9 |
| 20260505112726 | 48 | 0 | 8.0 | 16.0 | 0.00 | 0.00 | 0.00 | 88 | 1014.8 |
| 20260505112225 | 48 | 337 | 9.0 | 16.0 | 0.00 | 0.00 | 0.00 | 88 | 1014.8 |
| 20260505111727 | 48 | 353 | 8.0 | 16.0 | 0.00 | 0.00 | 0.00 | 87 | 1014.8 |
| 20260505111228 | 48 | 345 | 8.0 | 16.0 | 0.00 | 0.00 | 0.00 | 87 | 1014.8 |
| 20260505110726 | 48 | 0 | 9.0 | 14.0 | 0.00 | 0.00 | 0.00 | 87 | 1014.9 |
| 20260505110227 | 49 | 350 | 7.0 | 13.0 | 0.00 | 0.00 | 0.00 | 89 | 1014.8 |
| 20260505101727 | 51 | 343 | 7.0 | 14.0 | 0.00 | 0.00 | 0.00 | 82 | 1014.5 |
| 20260505101229 | 51 | 344 | 7.0 | 14.0 | 0.00 | 0.00 | 0.00 | 83 | 1014.6 |
| 20260505100728 | 51 | 336 | 5.0 | 11.0 | 0.00 | 0.00 | 0.00 | 82 | 1014.4 |
| 20260505095726 | 50 | 0 | 5.0 | 13.0 | 0.00 | 0.00 | 0.00 | 82 | 1014.5 |
| 20260505095227 | 50 | 347 | 8.0 | 13.0 | 0.00 | 0.00 | 0.00 | 82 | 1014.5 |
| 20260505094728 | 50 | 8 | 7.0 | 12.0 | 0.00 | 0.00 | 0.00 | 81 | 1014.5 |
| 20260505093727 | 51 | 10 | 6.0 | 15.0 | 0.00 | 0.00 | 0.00 | 81 | 1014.5 |
| 20260505093228 | 51 | 4 | 7.0 | 15.0 | 0.00 | 0.00 | 0.00 | 81 | 1014.5 |
| 20260505092727 | 51 | 13 | 7.0 | 14.0 | 0.00 | 0.00 | 0.00 | 81 | 1014.4 |
| 20260505092227 | 51 | 310 | 8.0 | 13.0 | 0.00 | 0.00 | 0.00 | 81 | 1014.3 |
| 20260505091726 | 50 | 3 | 6.0 | 12.0 | 0.00 | 0.00 | 0.00 | 81 | 1014.3 |
| 20260505091228 | 50 | 0 | 5.0 | 12.0 | 0.00 | 0.00 | 0.00 | 81 | 1014.4 |
| 20260505085227 | 51 | 354 | 5.0 | 13.0 | 0.00 | 0.00 | 0.00 | 79 | 1014.3 |
| 20260505084728 | 51 | 0 | 8.0 | 13.0 | 0.00 | 0.00 | 0.00 | 79 | 1014.2 |
| 20260505084226 | 51 | 347 | 6.0 | 11.0 | 0.00 | 0.00 | 0.00 | 80 | 1014.2 |
| 20260505083726 | 51 | 323 | 6.0 | 9.0 | 0.00 | 0.00 | 0.00 | 81 | 1014.1 |
| 20260505083228 | 51 | 353 | 3.0 | 11.0 | 0.00 | 0.00 | 0.00 | 82 | 1014.1 |
| 20260505082726 | 50 | 337 | 5.0 | 13.0 | 0.00 | 0.00 | 0.00 | 82 | 1014.2 |
| 20260505082224 | 50 | 354 | 6.0 | 13.0 | 0.00 | 0.00 | 0.00 | 82 | 1014.2 |
| 20260505081724 | 49 | 330 | 4.0 | 12.0 | 0.00 | 0.00 | 0.00 | 83 | 1014.1 |
| 20260505080227 | 49 | 272 | 3.0 | 8.0 | 0.00 | 0.00 | 0.00 | 83 | 1014.1 |
| 20260505075728 | 49 | 238 | 3.0 | 8.0 | 0.00 | 0.00 | 0.00 | 83 | 1014.2 |
| 20260505075226 | 48 | 320 | 3.0 | 8.0 | 0.00 | 0.00 | 0.00 | 83 | 1014.1 |
| 20260505074729 | 48 | 257 | 4.0 | 8.0 | 0.00 | 0.00 | 0.00 | 83 | 1014.2 |
| 20260505074227 | 48 | 264 | 2.0 | 7.0 | 0.00 | 0.00 | 0.00 | 84 | 1014.2 |
| 20260505073228 | 48 | 288 | 2.0 | 9.0 | 0.00 | 0.00 | 0.00 | 84 | 1014.2 |
| 20260505072725 | 48 | 237 | 4.0 | 9.0 | 0.00 | 0.00 | 0.00 | 84 | 1014.2 |
| 20260505072226 | 47 | 216 | 4.0 | 9.0 | 0.00 | 0.00 | 0.00 | 85 | 1014.2 |
| 20260505071226 | 47 | 247 | 4.0 | 9.0 | 0.00 | 0.00 | 0.00 | 85 | 1014.1 |
| 20260505070225 | 47 | 281 | 4.0 | 11.0 | 0.00 | 0.00 | 0.00 | 87 | 1014.1 |
| 20260505065727 | 46 | 199 | 4.0 | 8.0 | 0.00 | 0.00 | 0.00 | 88 | 1014.2 |
| 20260505065227 | 46 | 202 | 3.0 | 8.0 | 0.00 | 0.00 | 0.00 | 90 | 1014.2 |
| 20260505064726 | 45 | 243 | 4.0 | 9.0 | 0.00 | 0.00 | 0.00 | 91 | 1014.3 |
| 20260505064227 | 45 | 228 | 4.0 | 9.0 | 0.00 | 0.00 | 0.00 | 92 | 1014.3 |
| 20260505063728 | 44 | 262 | 4.0 | 7.0 | 0.00 | 0.00 | 0.00 | 94 | 1014.2 |
| 20260505062729 | 43 | 248 | 4.0 | 7.0 | 0.00 | 0.00 | 0.00 | 94 | 1014.2 |
| 20260505062225 | 43 | 247 | 1.0 | 7.0 | 0.00 | 0.00 | 0.00 | 94 | 1014.2 |
| 20260505061727 | 42 | 216 | 3.0 | 7.0 | 0.00 | 0.00 | 0.00 | 94 | 1014.1 |
| 20260505061224 | 42 | 250 | 2.0 | 7.0 | 0.00 | 0.00 | 0.00 | 94 | 1014.2 |
| 20260505060727 | 42 | 286 | 2.0 | 7.0 | 0.00 | 0.00 | 0.00 | 94 | 1014.2 |
| 20260505060226 | 41 | 258 | 4.0 | 7.0 | 0.00 | 0.00 | 0.00 | 94 | 1014.2 |
| 20260505055729 | 41 | 295 | 2.0 | 7.0 | 0.00 | 0.00 | 0.00 | 94 | 1014.2 |
| 20260505055227 | 41 | 251 | 4.0 | 7.0 | 0.00 | 0.00 | 0.00 | 94 | 1014.1 |